Погода в Зилаире

Погода в Зилаире : погода сейчас, прогноз погоды и архив. Всё, что Вы хотите узнать о погоде в Зилаире!

Поиск расширенной информации на нашем сайте:

Другие новости

Новости СМИ2

Главная страница сайта

Новости сайта

02.10.2013

Напоминаем, что на нашем новом сайте вы можете получить высокодетализированные прогнозы погоды по пунктам России, СНГ и мира (включающие важные для авиации метеовеличины, такие как направление и скорость ветра, видимость, явления погоды, количество и форма облачности, нижняя и верхняя граница облачности), а также ознакомиться с разнообразными материалами по авиационной метеорологии и подборкой полезных ссылок на эту тему.

Сайт Метеоцентр.Азия посвящён разработке технологий оптимизации авиаметеорологического обслуживания, включая проектирование и перспективное создание нескольких автоматизированных авиаметеорологических систем:
- система выпуска высокодетальных прогностических карт явлений погоды для нижнего воздушного пространства по России и ближнему зарубежью;
- система верификации прогнозов TAF (выпускаемых синоптиками официальных АМСГ РФ и ближнего зарубежья) и AUTOTAF (выпускаемых сайтом Метеоцентр.Азия) - выявление ошибок, онлайн-сопоставление с фактической погодой METAR, автоматическое внесение коррективов в прогнозы при резком отклонении фактической погоды от прогноза, подсчёт оправдываемости прогнозов по элементам и в целом;
- система обработки, анализа и отображения авиаметеорологической информации для применения провайдерами метеорологической информации.

Рекомендуем: Бизнес план салона штор.

Погода в Зилаире - сегодня

Время (UTC), дата Ветер
(°,м/с) 
Видим.   Явления Облачность Т
(°С)
Тd
(°С)
f(%) Тe
(°С)
Pmin
(гПа)
dP
(гПа)
Po
(мм)
O2
(г/м3)
Тmin Tmax R s Состояние
почвы
15 24.03.17 320 (СЗ) 10 км    10/10 600 м 
[Sc]
-1.1 -4.1 80 -3  1021.7  0.9  718  291    -0.1       
18 24.03.17 330 (СЗ) 10 км    10/10 600 м 
[Sc]
-1.5 -5.4 75 -3  1022.6  0.7  719  292           
21 24.03.17 300 (СЗ) 10 км    4/4 600 м 
[Sc]
-2.9 -6 79 -4  1023.1  0.2  719  293           
00 25.03.17 240 (ЮЗ) 4000 м  дымка  10/10 600 м 
[Sc]
-4.1 -5.1 93 -4  1023.3  -0.1  719  295           
03 25.03.17 220 (ЮЗ) 10 км    10/0 средняя 
[Ac As]
-3.8 -5.2 90 -5  1022.5  -0.7  718  294  -4.4      72  неравномерный
сухой снег
100% 
06 25.03.17 230 (ЮЗ) 10 км  {туман}  10/10 600 м 
[Sc]
-2.5 -6.1 76 -5  1021  -1.1  717  292  -4.8         
09 25.03.17 200 (Ю) 10 км    10/0 средняя 
[Ac As]
-1.8 -6 73 -5  1019.5  -1.3  716  291           
12 25.03.17 190 (Ю) 10 км    10/0 средняя 
[Ac As]
-1.3 -4.8 77 -3  1017.8  -1.4  715  290           
15 25.03.17 180 (Ю) 10 км    10/0 средняя 
[Ac As]
-1.1 -3.3 85 -3  1015.7  -1.9  714  289    -1       
18 25.03.17 190 (Ю) 10 км    10/10 600 м 
[Sc]
-0.5 -1.7 92 -3  1014.5  -1  713  288           
21 25.03.17 200 (Ю) 4000 м  дымка  10/10 600 м 
[Sc]
-0.1 -0.9 94 -3  1012.9  -1.4  712  287           
00 26.03.17 210 (ЮЗ) 4{10}  4000 м  слаб. снег  10/10 300 м 
[Ns]
+0 -0.6 96 -2  1011.3  -1.5  711  286           
03 26.03.17 210 (ЮЗ) 4000 м  слаб. снег  10/10 300 м 
[Ns]
-0.3 -0.8 96 -3  1010.9  -0.4  711  287  -1.1    0.9  72  неравномерный
мокрый или
старый снег
100% 
06 26.03.17 250 (З) 4000 м  в посл. час снег  10/10 600 м 
[Sc]
-0.1 -0.8 95 -2  1012  711  287           
09 26.03.17 270 (З) 20000 м    9/9 600 м 
[Sc]
+0.7 -4.1 70 -1  1012.4  0.6  712  286           
12 26.03.17 270 (З) 20000 м    3/0 средняя 
[Ac lent]
+0.3 -9.4 48 -1  1012.9  0.3  712  287           
15 26.03.17 250 (З) 10 км    ясно 
-3.4 -9.2 64 -5  1014.2  0.4  712  292    +1  0.3     
18 26.03.17 190 (Ю) 10 км    ясно 
-6.8 -9.9 79 -6  1015.5  0.4  713  295           
21 26.03.17 190 (Ю) 10 км    8/0 средняя 
[Ac und]
-8.8 -10.4 88 -10  1015.8  -0.2  713  298           
00 27.03.17 200 (Ю) 10 км    10/0 средняя 
[Ac As]
-7.1 -9.1 86 -9  1014.6  -0.7  712  295           
03 27.03.17 190 (Ю) 10 км    10/0 средняя 
[Ac As]
-6.9 -8 92 -10  1013.3  -1.2  711  295  -9.3      72  неравномерный
сухой снег
100% 
06 27.03.17 220 (ЮЗ) 4000 м  слаб. снег  10/0 средняя 
[As trans]
-2.9 -6.7 75 -4  1011.9  -0.3  711  290           
09 27.03.17 270 (З) 20000 м  {снег}  9/9 600 м 
[Sc]
-1.3 -7.6 62 -2  1010.3  -1.2  710  288           
12 27.03.17 290 (З) 20000 м  {снег}  9/9 600 м 
[Sc]
-0.3 -8.1 56 -1  1009.5  -0.5  710  287           
15 27.03.17 200 (Ю) 10 км    3/0 средняя 
[Ac lent]
-3.1 -8.6 66 -3  1010  -0.2  710  290    +0.4  0.0     
Время (UTC), дата Ветер
(°,м/с) 
Видим.   Явления Облачность Т
(°С)
Тd
(°С)
f(%) Тe
(°С)
Pmin
(гПа)
dP
(гПа)
Po
(мм)
O2
(г/м3)
Тmin Tmax R s Состояние
почвы

Для получения пояснительной информации подведите курсор к названию столбца.

ПОГОДА в Зилаире - архив

Всё, что Вы хотите узнать о погоде в Зилаире - удобно и подробно!

Выберите нужную дату (начиная с 1 января 2015* года) и нажмите кнопку "Найти".
Будут отображены архивные сводки погоды по пункту Зилаир, начиная с указанной даты.


Отображать данные в формате CSV (для использования в таблицах Excel)


Внимание! Наш архив погоды предназначен исключительно для личного некоммерческого использования в познавательных целях. Если Вам необходимы официальные справки о состоянии погоды (для производственных, юридических, коммерческих и т.п. целей), обращайтесь в органы Росгидромета.

*Примечание: данная дата относится к архиву по метеостанциям СССР (Россия, СНГ, Балтия).
Архив по метеостанциям Зарубежной Европы и Азии (кроме Китая) хранится 10 дней, по другим регионам земного шара (Китай, Африка, Америка, Австралия, Океания) - 1 день.

Зилаир - район местоположения метеостанции


Название, широта, долгота, высота метеостанции:
Зилаир 52.2°ш. 57.4°д. 521 м над ур. моря [Российская Федерация]

Дополнительная информация

В oтличие oт бoльшинства пoгoдных сайтoв мы публикуем пoдрoбную метеoинфoрмацию в детальнoм прoфессиoнальнoм фoрмате.

Характеристики температуры и влажнoсти вoздуха измеряются на высoте 2 м в тени вдали oт зданий и деревьев.
Скoрoсть ветра измеряется на высoте 10 м (на урoвне рoста челoвека скoрoсть ветра ниже в 1.5-2 раза). Если метеoстанция нахoдится в гoрoде или в лесу, тo скoрoсть ветра занижена на 2-4 м/с пo сравнению с oткрытым местoм. Скoрoсть ветра над акватoриями крупных рек и oзёр, а также на вершинах хoлмoв на 2-5 м/с выше, чем в oбычных услoвиях.
Атмoсфернoе давление в разных тoчках местнoсти мoжет значительнo oтличаться oт давления на метеoстанции, в зависимoсти oт услoвий рельефа (при пoдъёме на 10 м давление пoнижается примернo на 1 мм рт.ст.).